Location: *
(43.9905°S, 176.4941°W)
Time: 02:56:39
(UTC+00:00)

Cosmos 2341 Rocket - Pass Details

Date: 08 December 2019
Orbit: 968 x 1004 km, 82.9° (Epoch: 20 January)

Event Time Altitude Azimuth Distance (km) Brightness Sun altitude
Rises 10:28:53 0° 190° (S) 3,702 8.6 -21.5°
Reaches altitude 10° 10:31:25 10° 192° (SSW) 2,747 7.5 -21.6°
Maximum altitude 10:37:40 73° 274° (W) 1,026 4.1 -21.9°
Enters shadow 10:40:06 39° 348° (NNW) 1,424 4.4 -22.0°
